Powrót do katalogu

CZ-4C DEB

AktywnyLEO
NORAD 38305·DEBRIS·🇨🇳 China

Wystrzelony Mar 5, 2010 z Jiuquan Satellite Launch Center

Loading…

Następne Przeloty (najbliższe 24 godziny)

TLE

ŚwieżeSource: Space-Track

Epoka: Sep 14, 2026, 13:19 UTC

1 38305U 10009J   26257.55539786 -.00000021  00000-0  15709-3 0  9998
2 38305  63.4879 314.5922 0298589 352.1350   7.5026 13.00375617619429

Śledź CZ-4C DEB w czasie rzeczywistym z AllMySat

Download on the App Store